Location: Consuma
(43.7833°N, 11.5833°E)
Time: 02:40:32
(UTC+00:00)

CZ-4B R/B - Pass Details

Date: 17 February 2020
Orbit: 486 x 652 km, 97.9° (Epoch: 03 April)

Event Time Altitude Azimuth Distance (km) Brightness Sun altitude
Rises 05:12:48 0° 355° (N) 2,651 6.2 -11.1°
Reaches altitude 10° 05:15:38 10° 332° (NNW) 1,730 5.0 -10.5°
Maximum altitude 05:17:46 15° 296° (WNW) 1,428 4.3 -10.2°
Enters shadow 05:18:31 14° 282° (WNW) 1,460 4.3 -10.0°
